Location: Carite
(10.3909°N, 67.0102°W)
Time: 05:06:49
(UTC+00:00)

SAR-Lupe-2 - Pass Details

Date: 08 September 2024
Orbit: 481 x 482 km, 98.1° (Epoch: 05 September)

Event Time Altitude Azimuth Distance (km) Brightness Sun altitude
Exits shadow 23:50:34 66° 106° (ESE) 526 3.4 -19.8°
Maximum altitude 23:50:47 69° 78° (ENE) 517 3.4 -19.9°
Drops below altitude 10° 23:54:18 10° 355° (N) 1,650 6.4 -20.7°
Sets 23:56:22 0° 352° (N) 2,529 7.4 -21.2°
